EW9934 Weather Reports


Display with metric or nautical units.
time (UTC)temp
F
wind
direction
speed
MPH
gust
MPH
rain 1hr
in
rain 24hr
in
rain mn
in
humidity
%
barometer
mb
20181015083047 46 117 0.0 3.0 0.00 0.00 0.00 29 1018.2
20181015081551 47 107 0.0 4.0 0.00 0.00 0.00 27 1018.2
20181015080100 47 51 0.0 5.0 0.00 0.00 0.00 26 1017.9
20181015074553 47 77 0.0 4.0 0.00 0.00 0.00 26 1017.9
20181015073030 47 93 0.0 1.0 0.00 0.00 0.00 27 1017.8
20181015071636 48 18 0.0 2.0 0.00 0.00 0.00 29 1017.8
20181015070018 48 68 0.0 1.0 0.00 0.00 0.00 27 1017.8
20181015064540 49 6 0.0 2.0 0.00 0.00 0.00 28 1017.6
20181015063015 49 12 1.0 5.0 0.00 0.00 0.00 26 1017.6
20181015060005 50 8 0.0 6.0 0.00 0.00 0.00 29 1017.2
20181015054608 50 202 0.0 6.0 0.00 0.00 0.00 31 1017.1
20181015053134 50 45 0.0 6.0 0.00 0.00 0.00 31 1016.9
20181015051624 51 79 0.0 7.0 0.00 0.00 0.00 33 1016.7
20181015050107 51 354 0.0 4.0 0.00 0.00 0.00 35 1016.7
20181015044648 51 157 0.0 3.0 0.00 0.00 0.00 37 1016.5
20181015043131 50 22 0.0 2.0 0.00 0.00 0.00 39 1016.3
20181015041616 50 70 0.0 1.0 0.00 0.00 0.00 44 1016.2
20181015040110 50 64 0.0 3.0 0.00 0.00 0.00 46 1015.9
20181015034602 50 219 0.0 1.0 0.00 0.00 0.00 50 1015.7
20181015033123 50 4 0.0 1.0 0.00 0.00 0.00 51 1015.6
20181015031537 51 360 0.0 1.0 0.00 0.00 0.00 50 1015.2
20181015030049 51 95 0.0 1.0 0.00 0.00 0.00 51 1015.1
20181015024538 52 26 0.0 1.0 0.00 0.00 0.00 50 1015.0
20181015023056 52 134 0.0 1.0 0.00 0.00 0.00 50 1015.0
20181015021526 53 72 0.0 1.0 0.00 0.00 0.00 52 1014.6
20181015020021 54 72 0.0 2.0 0.00 0.00 0.00 49 1014.4
20181015014509 55 23 0.0 1.0 0.00 0.00 0.00 46 1014.3
20181015013006 56 294 0.0 0.0 0.00 0.00 0.00 45 1014.0
20181015011618 58 294 0.0 0.0 0.00 0.00 0.00 45 1013.9
20181015010135 60 294 0.0 2.0 0.00 0.00 0.00 42 1013.9
20181015004710 62 293 0.0 4.0 0.00 0.00 0.00 38 1013.9
20181015003135 63 250 0.0 3.0 0.00 0.00 0.00 36 1013.8
20181015001607 64 270 1.0 3.0 0.00 0.00 0.00 33 1013.7
20181015000111 65 281 1.0 6.0 0.00 0.00 0.00 34 1013.9
20181014234744 65 342 1.0 4.0 0.00 0.00 0.00 33 1013.7
20181014233111 65 8 1.0 4.0 0.00 0.00 0.00 33 1013.9
20181014231646 65 294 1.0 4.0 0.00 0.00 0.00 34 1013.8
20181014230125 64 341 0.0 7.0 0.00 0.00 0.00 35 1013.8
20181014224603 64 342 2.0 6.0 0.00 0.00 0.00 36 1013.9
20181014223109 64 316 2.0 7.0 0.00 0.00 0.00 36 1014.0
20181014221638 64 348 2.0 7.0 0.00 0.00 0.00 36 1013.9
20181014220100 64 167 1.0 6.0 0.00 0.01 0.00 36 1013.8
20181014214532 64 254 2.0 4.0 0.00 0.01 0.00 38 1014.0
20181014213059 64 317 2.0 4.0 0.00 0.01 0.00 37 1013.9
20181014211526 63 333 1.0 5.0 0.00 0.01 0.00 36 1014.1
20181014210101 63 345 1.0 6.0 0.00 0.02 0.00 38 1014.2
20181014204534 62 354 2.0 6.0 0.00 0.02 0.00 39 1014.3
20181014203012 61 229 4.0 7.0 0.00 0.02 0.00 43 1014.5
20181014201507 60 333 3.0 8.0 0.00 0.02 0.00 44 1014.7
20181014200112 59 335 2.0 9.0 0.00 0.02 0.00 49 1014.8
20181014194712 59 241 3.0 6.0 0.00 0.02 0.00 51 1014.9
20181014193128 59 3 2.0 8.0 0.00 0.02 0.00 49 1015.1
20181014191614 59 306 2.0 4.0 0.00 0.02 0.00 48 1015.1
20181014190139 59 264 1.0 7.0 0.00 0.02 0.00 45 1015.3
20181014184612 59 1 1.0 7.0 0.00 0.05 0.02 48 1015.3
20181014183112 58 333 0.0 4.0 0.00 0.05 0.02 47 1015.3
20181014181634 57 348 2.0 4.0 0.00 0.05 0.02 47 1015.3
20181014180048 57 271 0.0 5.0 0.00 0.08 0.02 50 1015.3
20181014174538 56 350 1.0 8.0 0.00 0.08 0.02 50 1015.2
20181014173037 55 320 1.0 4.0 0.00 0.08 0.02 51 1015.2
20181014171613 54 304 0.0 4.0 0.00 0.08 0.02 52 1015.1
20181014170058 54 299 1.0 3.0 0.00 0.11 0.02 52 1015.2
20181014164552 53 356 0.0 5.0 0.00 0.11 0.02 53 1015.2
20181014163058 53 14 0.0 5.0 0.00 0.11 0.02 55 1015.1
20181014161548 52 32 1.0 7.0 0.00 0.11 0.02 54 1015.2
20181014160035 51 64 0.0 5.0 0.00 0.23 0.02 57 1015.2
20181014154531 51 82 0.0 2.0 0.00 0.23 0.02 59 1015.0
20181014153039 49 87 0.0 1.0 0.00 0.23 0.02 65 1014.9
20181014151519 46 84 0.0 1.0 0.00 0.23 0.02 76 1014.6
20181014150036 45 30 0.0 0.0 0.00 0.26 0.02 75 1014.4
20181014144508 45 30 0.0 0.0 0.00 0.26 0.02 75 1014.1
20181014143003 43 30 0.0 0.0 0.00 0.26 0.02 77 1014.0
20181014141739 42 30 0.0 0.0 0.00 0.26 0.02 81 1013.7
20181014140123 43 48 0.0 0.0 0.00 0.26 0.02 88 1013.5
20181014134721 44 49 0.0 1.0 0.00 0.26 0.02 74 1013.5
20181014133316 43 49 0.0 1.0 0.00 0.26 0.02 75 1013.2
20181014131632 44 48 0.0 0.0 0.00 0.26 0.02 81 1013.1
20181014130135 44 48 0.0 1.0 0.00 0.26 0.02 77 1012.8
20181014124636 44 56 0.0 1.0 0.00 0.27 0.02 75 1012.6
20181014123110 44 52 0.0 1.0 0.00 0.27 0.02 76 1012.6
20181014121549 41 52 0.0 1.0 0.00 0.27 0.02 85 1012.4
20181014120058 42 52 0.0 0.0 0.00 0.28 0.02 90 1012.3
20181014114553 44 52 0.0 1.0 0.00 0.28 0.02 73 1012.2
20181014113104 42 52 0.0 1.0 0.00 0.28 0.02 93 1012.1
20181014111627 43 34 0.0 0.0 0.00 0.28 0.02 90 1012.1
20181014110054 44 34 0.0 1.0 0.00 0.37 0.02 78 1012.1
20181014104633 44 39 0.0 1.0 0.00 0.37 0.02 77 1012.2
20181014103053 44 39 0.0 1.0 0.00 0.37 0.02 79 1012.3
20181014101642 44 40 0.0 1.0 0.00 0.37 0.02 79 1012.4
20181014100030 44 6 0.0 1.0 0.00 0.63 0.02 80 1012.5
20181014094537 44 7 0.0 1.0 0.00 0.63 0.02 85 1012.5
20181014093023 44 6 0.0 1.0 0.00 0.63 0.02 86 1012.4
20181014091520 43 358 0.0 1.0 0.00 0.63 0.02 90 1012.4
20181014090021 42 358 0.0 0.0 0.00 0.73 0.02 95 1012.5
20181014084537 42 357 0.0 0.0 0.00 0.73 0.02 98 1012.4